Orbital Elements at Epoch 2459200.5 (2020-Dec-17.0) TDB
Reference: JPL 14 (heliocentric ecliptic J2000)
Element | Value | Uncertainty (1-sigma) | Units |
e | .2365118492367508 | 4.4593e-08 | |
a | 2.341230325812124 | 1.3505e-08 | au |
q | 1.787501611965138 | 1.0588e-07 | au |
i | 8.158671127498657 | 6.0432e-06 | deg |
node | 302.2034210735882 | 3.8131e-05 | deg |
peri | 334.3673453147683 | 4.0246e-05 | deg |
M | 145.1561957937211 | 1.4689e-05 | deg |
tp | 2458672.908590868693 (2019-Jul-08.40859087) | 5.1136e-05 | TDB |
period | 1308.472616333793 3.58 | 1.1322e-05 3.1e-08 | d yr |
n | .2751299457902934 | 2.3806e-09 | deg/d |
Q | 2.89495903965911 | 1.67e-08 | au |
|
| | Orbit Determination Parameters
Additional Information
|